Temp
20 18 17 17 16 15 15 14 14 14 14 14 14 15 15 15 14 14 12 11 11 10 10 11 11 11 11 11 10 11 11 12 12 12 15 14 13 14 14 14 14 13 13
20 18 18 17 16 15 14 14 14 14 13 13 13 13 13 12 12 12 12 11 11 10 10 10 10 10 10 10 10 10 10 11 12 11 12 16 15 14 14 14 14 13 13
20 19 18 17 16 16 14 14 13 13 13 12 12 13 13 13 13 13 13 12 11 10 9 10 10 10 10 10 10 9 9 10 10 10 11 15 16 15 14 14 14 13 13
19 19 18 18 17 16 14 13 13 13 13 12 12 12 12 13 13 13 12 12 11 10 9 9 9 9 9 9 9 10 9 9 8 9 10 11 12 14 15 14 14 13 13
19 18 17 16 16 15 14 13 13 13 12 12 11 11 12 12 12 12 12 12 11 10 9 9 9 8 9 9 9 9 9 9 8 8 8 9 11 13 12 12 14 14 13
18 18 17 15 16 15 14 13 13 13 12 11 11 11 11 11 11 12 12 12 12 11 10 9 8 8 8 8 8 8 9 9 9 8 7 8 9 10 11 11 11 11 11
18 18 18 17 16 15 14 13 13 13 12 11 11 10 10 10 11 11 11 11 12 11 10 9 9 9 9 8 8 8 8 8 8 9 9 9 8 9 9 9 9 9 9
18 18 17 16 15 14 14 13 13 12 12 11 10 10 10 10 10 11 11 11 11 11 10 9 9 8 8 8 8 8 8 8 8 8 9 9 9 9 9 9 8 8 9
18 17 17 16 15 14 14 13 12 12 11 11 10 10 10 9 10 10 10 10 10 10 9 8 8 8 8 8 8 8 8 8 8 8 8 8 8 9 9 8 7 8 8
18 17 16 16 15 14 13 12 12 12 11 10 10 10 10 9 9 9 10 10 9 9 9 8 8 8 8 8 8 8 8 8 8 8 8 8 8 8 8 8 8 8 8
17 17 16 16 15 14 13 13 12 11 11 10 10 10 9 9 9 9 9 9 9 9 8 8 8 8 8 8 8 8 8 8 8 8 8 8 8 7 8 7 7 7 7
18 17 16 16 15 14 14 13 12 11 11 10 10 10 9 9 9 9 9 8 8 8 8 8 8 8 8 8 8 8 8 8 7 7 7 7 7 7 7 7 7 7 7
16 16 16 15 15 14 14 13 12 11 10 9 9 9 9 9 9 8 8 8 8 8 8 8 8 8 7 7 7 7 7 7 7 7 7 6 6 6 6 6 6 6 6
16 16 15 15 14 14 13 13 12 10 9 8 8 8 8 8 7 7 7 7 7 7 7 7 7 7 7 7 6 6 6 6 6 6 6 6 6 6 6 6 6 6 6
15 15 15 15 14 14 13 12 11 10 9 8 8 8 7 7 7 7 7 7 6 7 6 6 6 6 6 6 6 5 5 6 6 6 6 6 5 5 5 5 5 5 5
16 15 15 14 14 14 13 12 11 10 9 8 7 7 7 7 7 6 6 6 6 6 6 6 6 6 6 6 5 5 4 5 5 6 6 6 5 5 4 4 3 3 3
15 15 15 15 14 13 12 12 11 10 8 8 7 7 7 6 6 6 6 6 6 6 6 5 5 5 5 5 6 5 5 4 5 5 5 5 5 5 4 4 4 3 3
15 15 15 14 14 13 13 11 11 9 8 8 7 7 7 6 6 5 5 5 5 5 5 5 5 5 5 5 6 5 5 4 5 5 5 5 4 4 4 4 4 4 4
15 14 14 13 13 12 12 11 10 10 9 8 8 8 7 6 6 6 6 6 5 5 5 5 4 4 5 5 4 5 4 4 4 5 5 4 4 4 3 2 2 3 3
13 13 12 11 11 11 11 10 10 10 9 8 8 8 7 6 5 6 5 5 5 4 4 4 4 4 5 6 6 5 4 4 4 4 4 4 4 3 2 1 2 2 3
12 11 10 10 10 10 9 9 9 9 8 7 7 6 6 5 5 5 5 5 5 5 4 5 5 5 5 5 5 4 3 3 4 4 4 4 4 3 2 1 1 1 1
11 10 9 9 8 8 7 7 7 7 6 6 6 6 6 6 5 5 5 5 5 5 5 5 6 6 5 6 5 5 4 3 2 3 3 3 3 3 2 1 1 1 2
9 9 8 8 8 7 6 6 6 6 6 6 6 6 6 6 6 6 5 6 6 6 6 6 5 5 5 5 4 4 4 3 2 2 2 3 2 2 1 1 1 1 1
8 7 7 7 7 7 7 6 6 6 6 6 6 6 6 6 6 6 5 5 5 5 5 4 4 4 4 4 4 4 4 3 3 3 2 2 2 1 1 1 1 1 1
7 6 7 7 7 7 6 6 6 6 6 6 6 5 5 5 5 5 5 5 5 5 4 4 3 3 3 3 3 2 1 1 1 1 1 1 1 1 2 2 2 2 2
6 6 6 6 6 6 6 5 5 5 4 5 5 5 5 5 5 5 5 5 4 4 3 2 2 1 1 1 1 0 0 0 0 0 1 0 1 1 1 2 2 2 2
Height
802 806 807 809 810 810 809 808 808 807 806 805 803 800 799 798 796 794 793 792 791 789 787 786 785 783 782 780 779 777 774 771 768 764 758 757 758 757 757 758 758 758 759
800 804 806 808 809 808 808 808 807 806 804 804 803 800 798 796 794 792 791 790 789 787 786 785 784 782 781 780 778 776 775 772 770 767 762 754 756 756 757 757 758 758 759
796 801 803 806 807 807 807 807 806 805 803 802 802 798 796 793 790 789 788 788 787 786 785 784 783 782 780 778 778 776 775 773 771 770 768 757 752 755 755 757 757 758 758
799 801 802 803 805 806 807 805 805 804 803 800 801 798 795 791 789 788 787 786 785 784 783 782 781 781 780 778 776 775 774 774 773 771 770 768 766 760 755 755 756 757 757
797 800 802 804 805 805 805 804 804 803 801 798 799 797 793 790 788 787 785 784 783 782 782 780 780 780 779 778 777 775 774 773 773 773 771 769 766 763 764 760 755 756 756
796 799 801 802 803 804 804 803 802 801 799 797 796 794 791 788 786 785 783 782 781 781 780 779 779 778 778 778 777 775 774 773 772 771 772 771 770 766 764 763 762 760 757
793 796 798 800 801 801 802 802 800 798 797 794 793 791 789 786 784 783 781 780 778 778 778 777 777 777 776 776 776 775 774 773 772 771 770 769 768 768 767 767 764 762 758
789 793 796 798 799 800 800 799 798 796 795 793 791 789 788 785 783 781 779 778 776 776 775 775 775 775 774 774 773 773 772 771 771 770 770 768 767 766 764 765 765 762 757
789 791 794 796 797 797 797 797 796 795 794 792 790 788 786 784 781 779 778 776 774 774 773 772 772 771 771 770 770 769 769 769 769 768 767 766 765 764 763 763 763 762 760
787 788 791 792 794 795 795 795 795 793 791 790 789 787 785 782 780 778 776 774 773 772 771 770 770 769 769 768 768 767 766 766 765 765 765 765 764 763 762 761 761 760 759
783 785 787 789 790 791 792 793 792 791 790 789 788 786 784 781 779 777 775 773 772 771 770 769 768 767 766 765 765 764 763 763 762 762 761 761 760 759 759 758 758 757 757
780 783 786 786 787 788 789 789 789 788 788 787 786 784 782 780 778 776 774 771 770 768 767 766 764 764 763 763 762 761 761 760 759 758 757 757 757 757 756 755 754 752 752
778 780 781 782 783 784 786 786 786 786 786 785 784 783 782 780 778 776 773 770 768 767 766 764 763 761 761 759 758 757 756 756 756 755 754 752 751 750 750 751 751 750 749
774 776 777 778 779 780 782 783 783 783 783 782 781 780 779 777 776 773 771 769 767 765 763 762 760 759 758 757 756 755 755 753 752 752 751 750 749 749 748 746 744 745 744
771 772 773 774 776 777 779 779 779 779 779 779 778 777 776 775 773 772 770 768 766 764 762 760 758 756 754 753 752 752 751 749 747 746 746 746 744 744 744 744 743 741 739
764 766 768 770 771 772 773 773 773 773 774 773 773 772 771 771 770 770 768 766 764 762 759 757 756 754 752 751 749 748 747 746 745 743 742 742 740 738 737 735 735 736 735
761 763 766 768 770 770 770 769 768 769 768 769 768 768 768 768 767 766 764 763 761 759 757 755 753 751 749 747 745 744 743 742 741 740 739 737 737 735 734 733 731 730 729
759 761 763 764 765 766 766 765 765 765 765 764 764 764 764 764 764 763 762 760 758 756 754 752 750 748 745 743 741 740 739 738 736 736 734 733 731 731 730 729 727 725 723
755 758 760 761 761 761 760 760 759 761 761 761 761 761 761 761 759 758 756 755 754 753 751 748 746 744 742 741 738 736 735 734 733 732 730 728 727 727 726 724 722 720 716
755 757 758 759 759 758 757 755 755 754 755 757 757 757 757 756 754 753 752 752 750 748 746 742 740 738 735 733 732 730 730 728 727 726 724 723 722 722 722 721 719 716 712
751 754 755 754 753 753 754 754 754 754 754 754 754 753 752 752 752 750 748 746 745 744 741 738 737 734 731 728 727 726 724 722 721 719 717 716 717 715 715 715 713 710 708
749 751 752 751 751 752 752 752 751 750 750 750 750 750 749 748 747 745 744 742 740 739 737 734 731 729 727 724 722 721 719 718 718 715 712 710 709 709 708 707 705 704 703
748 748 748 748 748 748 749 748 748 748 748 747 746 745 743 742 741 740 738 736 735 733 731 729 726 723 721 718 716 714 712 711 710 708 706 704 702 701 700 699 697 696 694
748 747 746 746 746 745 744 745 745 744 743 741 740 739 738 736 735 733 731 729 728 726 724 722 720 717 714 712 710 708 706 705 703 700 697 696 694 693 691 690 687 686 685
746 747 746 745 745 744 741 740 740 740 739 737 735 734 733 731 729 727 724 721 718 718 716 714 713 711 707 705 704 702 700 698 697 696 693 690 687 685 683 681 679 677 676
746 747 745 743 742 742 740 737 736 736 735 732 729 728 726 724 722 720 717 715 713 711 710 707 706 703 701 698 695 694 692 690 689 688 684 682 679 677 675 673 671 669 668
Wind_Speed
8 5 2 0 1 1 3 4 5 6 7 8 9 10 10 11 11 9 9 8 7 7 7 8 9 9 10 10 11 13 14 12 9 12 5 3 2 1 1 1 1 2 1
8 5 3 2 1 1 3 3 5 7 8 8 10 9 11 11 11 11 10 9 7 7 7 8 9 8 9 10 9 10 13 11 9 8 9 3 5 5 3 3 2 1 2
8 6 5 1 1 1 2 3 6 8 9 10 11 10 12 12 9 9 7 8 8 7 7 7 8 9 8 8 9 8 8 10 10 8 5 3 2 4 6 5 4 4 5
5 4 2 0 1 3 5 5 7 9 10 11 12 12 13 12 11 12 11 10 9 8 7 7 7 8 8 8 7 7 7 6 7 10 5 8 9 3 3 5 6 5 7
5 4 2 0 3 4 5 6 8 10 10 11 11 12 12 12 12 11 11 10 9 8 7 7 6 7 8 8 8 8 7 6 4 6 7 10 12 7 3 6 5 8 10
6 5 3 2 2 2 3 6 8 10 10 10 10 11 12 12 12 12 12 10 7 6 6 6 6 7 8 9 9 8 8 8 6 5 6 8 5 10 8 5 8 9 15
6 5 5 3 2 2 5 7 8 10 10 10 10 11 11 11 11 10 9 9 8 6 5 5 6 6 7 8 8 9 9 9 9 8 7 7 8 10 9 8 9 7 16
7 7 6 4 3 3 5 7 7 9 9 10 11 11 11 10 10 9 9 9 8 7 5 5 6 7 7 8 8 8 9 9 9 10 10 10 10 9 8 8 8 6 7
7 7 6 5 4 4 5 6 7 8 8 9 11 11 11 11 11 11 9 8 8 7 6 6 7 7 8 8 8 8 9 9 10 10 10 10 10 11 9 7 10 7 5
8 8 8 7 7 6 6 5 6 7 7 8 10 10 11 11 10 10 9 8 8 8 8 8 8 8 8 8 8 9 9 9 10 10 10 11 11 10 10 11 12 12 11
10 8 8 9 9 8 7 7 6 6 7 8 9 10 10 11 10 9 9 8 8 8 8 9 9 9 9 9 9 10 11 11 11 11 12 12 11 11 11 12 12 13 13
11 10 12 12 11 11 9 7 5 5 6 8 9 10 10 10 9 9 8 8 8 8 8 8 8 9 9 9 10 11 11 12 13 12 12 13 11 12 12 13 13 14 14
11 12 13 14 13 13 9 7 6 6 7 8 9 10 10 10 10 10 10 9 9 9 8 9 9 9 10 10 10 11 11 13 14 14 14 14 13 13 13 13 14 14 15
9 8 8 9 10 11 9 8 8 7 7 7 9 9 9 9 10 10 10 10 9 9 8 8 8 9 9 10 10 11 12 13 14 15 16 16 16 15 14 14 14 14 15
8 7 6 5 9 10 11 10 10 9 9 8 9 10 10 10 10 10 10 10 9 9 8 8 8 8 8 8 8 11 12 14 15 15 16 17 17 17 18 16 14 14 15
7 5 6 7 10 11 13 14 13 13 10 9 10 10 9 9 9 10 10 10 10 9 9 9 8 9 8 10 12 13 12 13 15 16 15 16 17 18 19 19 21 22 18
7 6 6 6 8 11 13 15 14 12 11 11 11 10 10 9 10 10 11 11 11 11 11 10 10 10 11 12 12 12 13 13 15 15 16 16 15 16 17 17 18 20 22
7 6 6 8 11 13 14 14 13 12 11 10 11 11 11 11 11 12 12 13 12 12 12 12 12 13 13 14 14 14 15 13 15 16 16 17 17 16 16 16 18 19 20
5 5 7 10 13 16 15 13 13 13 11 11 12 11 11 11 11 12 13 13 13 14 14 15 16 16 19 16 17 16 14 15 17 17 17 17 17 16 16 16 18 19 20
5 7 9 12 15 15 13 12 13 13 13 12 13 11 10 12 12 12 14 14 13 15 16 18 20 21 22 20 18 17 15 16 17 17 16 16 19 19 16 16 17 20 20
6 8 9 10 11 11 10 11 12 12 10 9 10 10 11 12 13 15 16 15 16 16 18 19 20 21 22 23 22 21 19 19 18 17 17 17 16 18 18 17 20 23 22
5 6 6 7 7 6 6 8 9 7 6 7 10 12 13 14 15 15 16 17 17 18 19 20 20 19 20 19 20 22 23 21 21 22 22 22 21 24 23 21 23 24 24
5 3 3 4 4 2 3 6 6 5 6 9 13 15 17 17 17 17 18 17 18 18 18 18 18 19 18 19 20 21 22 22 21 23 24 23 25 25 28 29 28 27 25
5 4 4 4 5 5 5 7 8 9 10 13 15 17 17 18 18 19 19 19 18 18 19 17 18 19 19 19 20 20 20 19 20 21 21 22 22 24 28 29 28 26 25
5 5 6 7 9 10 9 8 9 10 13 16 18 18 19 19 21 21 21 21 22 20 19 20 19 19 20 22 22 22 23 24 24 26 25 25 24 24 23 23 24 24 24
7 8 9 11 12 13 13 10 10 12 15 18 17 17 18 19 20 21 23 23 26 27 26 30 29 28 26 26 28 27 25 27 27 25 23 22 24 23 23 22 22 22 23
Wind_Direction
157 175 161 204 317 337 356 344 337 336 330 319 312 310 300 296 291 286 285 284 291 302 313 312 314 316 317 318 322 324 323 320 320 303 300 235 249 164 178 177 150 105 85
181 168 166 156 102 49 22 12 5 354 346 329 312 302 297 293 291 288 281 276 281 296 306 306 310 313 313 319 323 329 328 324 339 337 291 261 179 210 196 207 198 223 257
179 164 172 181 271 357 338 330 334 334 338 333 321 311 298 287 290 293 272 275 275 286 290 297 301 305 306 309 317 325 330 332 332 359 329 313 353 353 164 221 238 261 273
187 174 177 212 337 291 289 302 321 326 327 334 320 314 304 304 306 299 289 284 279 274 274 283 292 296 299 301 307 314 318 328 329 337 326 312 320 328 321 185 231 261 284
183 180 176 333 314 298 299 310 316 320 324 329 319 313 311 311 305 298 294 292 282 269 266 278 285 292 296 298 301 306 307 310 311 321 334 329 314 264 293 307 319 318 306
189 199 200 252 286 298 318 316 316 323 326 326 326 319 317 315 310 305 303 299 289 281 274 277 287 293 298 303 304 306 302 300 296 276 293 295 303 333 329 316 308 319 300
194 208 217 239 274 310 319 324 328 327 328 333 330 325 316 313 308 307 303 303 297 285 278 273 283 289 290 291 297 305 303 299 294 296 286 268 269 276 288 303 294 299 304
197 201 211 225 249 279 310 316 322 324 330 334 330 328 322 314 307 305 302 295 293 290 280 279 279 285 287 288 289 291 294 296 292 291 292 289 283 277 268 266 293 300 298
207 208 207 222 240 265 287 305 317 322 332 335 333 331 332 324 312 307 299 295 294 288 287 278 275 272 272 272 273 278 285 287 289 288 284 278 280 280 280 281 267 282 297
207 213 215 225 238 253 274 283 290 310 325 332 333 328 326 327 322 312 304 301 297 289 282 275 271 274 274 275 274 276 279 279 280 280 281 282 283 282 275 275 267 260 262
214 208 222 234 242 246 256 263 279 307 321 324 322 321 326 331 330 324 318 313 304 298 289 285 283 281 277 272 268 269 273 274 276 276 273 272 271 272 273 271 267 266 263
224 228 241 258 263 252 249 255 272 292 300 305 310 314 320 325 322 319 318 312 303 294 287 283 281 280 278 276 273 276 276 276 276 277 275 272 273 269 268 266 262 260 261
244 246 254 259 259 247 244 252 261 271 284 298 306 310 311 314 318 322 325 324 318 309 300 293 289 288 284 282 278 274 276 277 277 277 273 269 264 259 257 258 262 266 271
240 245 254 256 246 233 244 256 258 258 271 284 290 293 299 306 313 318 321 318 314 308 303 297 292 290 291 289 288 288 286 284 282 280 276 274 270 267 263 256 254 257 262
234 240 255 258 243 236 247 249 251 255 263 268 277 283 290 301 308 310 309 308 308 305 304 304 304 300 295 293 281 286 284 280 277 275 275 275 272 270 266 268 266 260 257
226 244 235 235 231 244 249 247 240 238 237 252 266 274 277 285 293 297 300 302 304 308 309 309 305 302 299 285 298 300 293 287 283 281 279 278 276 275 276 273 262 254 259
222 218 219 237 260 267 266 254 243 235 242 257 266 268 270 274 280 285 290 293 297 300 299 299 296 297 295 293 302 303 298 288 282 280 280 280 277 276 273 271 268 264 258
207 211 236 256 266 278 277 262 248 239 239 245 256 258 258 264 275 283 287 291 292 291 291 290 288 291 293 289 297 298 299 291 281 278 276 275 276 274 273 275 275 271 265
219 260 273 278 284 286 284 260 253 249 250 251 259 257 254 261 269 274 279 283 287 288 285 285 287 289 295 293 294 299 296 293 289 288 285 278 277 277 276 273 275 276 274
249 278 287 284 283 284 279 260 256 256 251 253 259 257 251 255 263 270 279 283 281 281 285 287 291 294 293 296 293 289 281 276 279 283 283 284 285 287 279 276 277 280 281
271 285 277 275 285 292 287 265 269 268 272 266 267 258 257 263 273 278 277 276 276 275 278 280 279 280 280 284 286 283 272 267 271 270 273 275 276 276 278 276 271 270 282
280 282 279 289 301 303 283 274 272 286 277 269 265 266 270 273 273 272 274 277 277 276 276 277 278 276 279 283 285 286 288 279 276 275 274 272 272 277 280 278 275 275 277
279 265 270 272 265 234 247 261 270 269 267 266 270 274 276 275 274 271 273 274 272 269 271 274 277 279 281 282 284 285 282 281 271 270 271 272 273 274 278 278 274 272 267
281 275 266 263 273 266 258 265 269 270 272 275 277 278 277 275 273 270 266 264 264 265 265 268 273 281 286 287 287 288 290 287 283 280 279 275 273 271 271 272 269 264 262
297 276 285 290 288 290 286 287 288 284 285 283 282 281 278 274 273 268 263 260 260 261 266 267 271 276 276 275 280 284 287 285 283 286 284 281 276 274 271 266 264 263 262
308 301 294 289 289 291 290 292 289 282 277 279 278 276 275 275 276 277 278 274 272 274 270 274 272 272 270 279 283 285 286 287 285 283 274 271 270 270 269 267 265 266 267